| time (UTC) | temp C | wind direction | speed KPH | gust KPH | rain 1hr cm | rain 24hr cm | rain mn cm | humidity % | barometer mb |
| 20260505160520 | 11 | 135 | 1.6 | 8.0 | 0.00 | 0.00 | 0.00 | 60 | 1009.6 |
| 20260505153017 | 11 | 135 | 3.2 | 19.3 | 0.00 | 0.00 | 0.00 | 59 | 1009.2 |
| 20260505152517 | 11 | 135 | 3.2 | 16.1 | 0.00 | 0.00 | 0.00 | 59 | 1009.2 |
| 20260505152017 | 11 | 158 | 3.2 | 11.3 | 0.00 | 0.00 | 0.00 | 59 | 1009.2 |
| 20260505151517 | 11 | 90 | 1.6 | 11.3 | 0.00 | 0.00 | 0.00 | 59 | 1009.1 |
| 20260505151017 | 11 | 135 | 1.6 | 8.0 | 0.00 | 0.00 | 0.00 | 59 | 1009.0 |
| 20260505150517 | 11 | 135 | 3.2 | 9.7 | 0.00 | 0.00 | 0.00 | 59 | 1009.0 |
| 20260505140517 | 11 | 158 | 3.2 | 14.5 | 0.00 | 0.00 | 0.00 | 59 | 1008.8 |
| 20260505125017 | 12 | 0.0 | 3.2 | 0.00 | 0.00 | 0.00 | 67 | 1008.8 | |
| 20260505124517 | 12 | 135 | 1.6 | 11.3 | 0.00 | 0.00 | 0.00 | 67 | 1008.7 |
| 20260505124017 | 12 | 180 | 1.6 | 6.4 | 0.00 | 0.00 | 0.00 | 66 | 1008.6 |
| 20260505123517 | 12 | 0.0 | 4.8 | 0.00 | 0.00 | 0.00 | 65 | 1008.6 | |
| 20260505123017 | 12 | 180 | 1.6 | 4.8 | 0.00 | 0.00 | 0.00 | 65 | 1008.4 |
| 20260505122517 | 12 | 180 | 1.6 | 4.8 | 0.00 | 0.00 | 0.00 | 63 | 1008.4 |
| 20260505122017 | 12 | 0.0 | 3.2 | 0.00 | 0.00 | 0.00 | 62 | 1008.4 | |
| 20260505121517 | 13 | 203 | 1.6 | 4.8 | 0.00 | 0.00 | 0.00 | 61 | 1008.4 |
| 20260505121017 | 13 | 203 | 1.6 | 8.0 | 0.00 | 0.00 | 0.00 | 61 | 1008.4 |
| 20260505120517 | 13 | 203 | 1.6 | 11.3 | 0.00 | 0.00 | 0.00 | 60 | 1008.5 |
| 20260505120017 | 13 | 203 | 1.6 | 8.0 | 0.00 | 0.00 | 0.00 | 59 | 1008.4 |
| 20260505115517 | 13 | 135 | 1.6 | 9.7 | 0.00 | 0.00 | 0.00 | 58 | 1008.5 |
| 20260505115017 | 13 | 0.0 | 3.2 | 0.00 | 0.00 | 0.00 | 58 | 1008.5 | |
| 20260505114517 | 13 | 135 | 1.6 | 4.8 | 0.00 | 0.00 | 0.00 | 59 | 1008.4 |
| 20260505114017 | 13 | 0.0 | 4.8 | 0.00 | 0.00 | 0.00 | 60 | 1008.5 | |
| 20260505113517 | 13 | 0.0 | 4.8 | 0.00 | 0.00 | 0.00 | 59 | 1008.5 | |
| 20260505113018 | 13 | 0.0 | 3.2 | 0.00 | 0.00 | 0.00 | 57 | 1008.5 | |
| 20260505112517 | 13 | 0.0 | 4.8 | 0.00 | 0.00 | 0.00 | 57 | 1008.4 | |
| 20260505112017 | 13 | 0.0 | 3.2 | 0.00 | 0.00 | 0.00 | 57 | 1008.3 | |
| 20260505111517 | 13 | 0.0 | 3.2 | 0.00 | 0.00 | 0.00 | 58 | 1008.3 | |
| 20260505111017 | 13 | 0.0 | 1.6 | 0.00 | 0.00 | 0.00 | 58 | 1008.3 | |
| 20260505110517 | 13 | 0.0 | 3.2 | 0.00 | 0.00 | 0.00 | 59 | 1008.4 | |
| 20260505102017 | 13 | 0.0 | 1.6 | 0.00 | 0.00 | 0.00 | 65 | 1008.3 | |
| 20260505101517 | 13 | 0.0 | 3.2 | 0.00 | 0.00 | 0.00 | 65 | 1008.3 | |
| 20260505101017 | 13 | 0.0 | 3.2 | 0.00 | 0.00 | 0.00 | 64 | 1008.2 | |
| 20260505100517 | 13 | 0.0 | 3.2 | 0.00 | 0.00 | 0.00 | 64 | 1008.1 | |
| 20260505100017 | 13 | 0.0 | 6.4 | 0.00 | 0.00 | 0.00 | 64 | 1008.2 | |
| 20260505095517 | 13 | 0.0 | 3.2 | 0.00 | 0.00 | 0.00 | 63 | 1008.0 | |
| 20260505095017 | 13 | 0.0 | 4.8 | 0.00 | 0.00 | 0.00 | 63 | 1008.3 | |
| 20260505094517 | 13 | 0.0 | 4.8 | 0.00 | 0.00 | 0.00 | 63 | 1008.1 | |
| 20260505094017 | 13 | 203 | 1.6 | 6.4 | 0.00 | 0.00 | 0.00 | 63 | 1008.4 |
| 20260505093517 | 13 | 0.0 | 3.2 | 0.00 | 0.00 | 0.00 | 62 | 1008.4 | |
| 20260505093017 | 13 | 0.0 | 4.8 | 0.00 | 0.00 | 0.00 | 62 | 1008.4 | |
| 20260505092517 | 13 | 0.0 | 3.2 | 0.00 | 0.00 | 0.00 | 61 | 1008.7 | |
| 20260505092017 | 13 | 0.0 | 3.2 | 0.00 | 0.00 | 0.00 | 60 | 1008.7 | |
| 20260505091517 | 13 | 0.0 | 3.2 | 0.00 | 0.00 | 0.00 | 60 | 1008.7 | |
| 20260505091017 | 13 | 203 | 1.6 | 4.8 | 0.00 | 0.00 | 0.00 | 62 | 1008.7 |
| 20260505090517 | 13 | 203 | 1.6 | 6.4 | 0.00 | 0.00 | 0.00 | 61 | 1008.8 |
| 20260505090017 | 13 | 0.0 | 4.8 | 0.00 | 0.00 | 0.00 | 60 | 1008.7 | |
| 20260505085517 | 13 | 0.0 | 3.2 | 0.00 | 0.00 | 0.00 | 60 | 1009.3 | |
| 20260505085017 | 13 | 0.0 | 4.8 | 0.00 | 0.00 | 0.00 | 59 | 1009.3 | |
| 20260505084517 | 13 | 0.0 | 1.6 | 0.00 | 0.00 | 0.00 | 60 | 1009.1 | |
| 20260505084017 | 13 | 0.0 | 4.8 | 0.00 | 0.00 | 0.00 | 61 | 1009.4 | |
| 20260505083517 | 13 | 0.0 | 4.8 | 0.00 | 0.00 | 0.00 | 61 | 1009.4 | |
| 20260505083017 | 13 | 0.0 | 3.2 | 0.00 | 0.00 | 0.00 | 61 | 1009.1 | |
| 20260505082517 | 13 | 0.0 | 4.8 | 0.00 | 0.00 | 0.00 | 61 | 1009.2 | |
| 20260505082017 | 13 | 0.0 | 4.8 | 0.00 | 0.00 | 0.00 | 62 | 1009.2 | |
| 20260505081517 | 13 | 203 | 1.6 | 4.8 | 0.00 | 0.00 | 0.00 | 62 | 1009.2 |
| 20260505081017 | 13 | 203 | 1.6 | 6.4 | 0.00 | 0.00 | 0.00 | 62 | 1009.3 |
| 20260505080517 | 13 | 0.0 | 3.2 | 0.00 | 0.00 | 0.00 | 62 | 1009.2 | |
| 20260505080017 | 13 | 203 | 1.6 | 8.0 | 0.00 | 0.00 | 0.00 | 62 | 1009.2 |
| 20260505075517 | 13 | 203 | 1.6 | 6.4 | 0.00 | 0.00 | 0.00 | 62 | 1009.2 |
| 20260505075017 | 13 | 203 | 3.2 | 9.7 | 0.00 | 0.00 | 0.00 | 62 | 1009.2 |
| 20260505074517 | 13 | 203 | 1.6 | 8.0 | 0.00 | 0.00 | 0.00 | 61 | 1009.6 |
| 20260505074017 | 13 | 203 | 1.6 | 6.4 | 0.00 | 0.00 | 0.00 | 61 | 1009.6 |
| 20260505073517 | 13 | 203 | 3.2 | 14.5 | 0.00 | 0.00 | 0.00 | 61 | 1009.6 |
| 20260505073017 | 13 | 203 | 4.8 | 14.5 | 0.00 | 0.00 | 0.00 | 60 | 1009.7 |
| 20260505072517 | 13 | 203 | 4.8 | 17.7 | 0.00 | 0.00 | 0.00 | 60 | 1009.6 |
| 20260505072017 | 13 | 203 | 3.2 | 11.3 | 0.00 | 0.00 | 0.00 | 59 | 1009.6 |
| 20260505071517 | 13 | 135 | 3.2 | 11.3 | 0.00 | 0.00 | 0.00 | 59 | 1009.6 |
| 20260505071017 | 13 | 135 | 3.2 | 8.0 | 0.00 | 0.00 | 0.00 | 58 | 1009.7 |
| 20260505070517 | 13 | 135 | 1.6 | 8.0 | 0.00 | 0.00 | 0.00 | 57 | 1009.7 |
| 20260505070017 | 13 | 135 | 1.6 | 9.7 | 0.00 | 0.00 | 0.00 | 55 | 1009.7 |
| 20260505065520 | 13 | 158 | 1.6 | 8.0 | 0.00 | 0.00 | 0.00 | 54 | 1009.7 |
| 20260505065017 | 13 | 135 | 1.6 | 9.7 | 0.00 | 0.00 | 0.00 | 54 | 1009.7 |
| 20260505064517 | 13 | 135 | 4.8 | 16.1 | 0.00 | 0.00 | 0.00 | 53 | 1009.8 |
| 20260505064017 | 13 | 158 | 3.2 | 14.5 | 0.00 | 0.00 | 0.00 | 53 | 1009.8 |
| 20260505063517 | 13 | 158 | 4.8 | 11.3 | 0.00 | 0.00 | 0.00 | 54 | 1009.7 |
| 20260505063017 | 13 | 135 | 3.2 | 11.3 | 0.00 | 0.00 | 0.00 | 54 | 1009.8 |
| 20260505062517 | 13 | 158 | 3.2 | 8.0 | 0.00 | 0.00 | 0.00 | 54 | 1009.5 |
| 20260505062017 | 13 | 135 | 4.8 | 16.1 | 0.00 | 0.00 | 0.00 | 54 | 1009.6 |
| 20260505061517 | 13 | 135 | 4.8 | 16.1 | 0.00 | 0.00 | 0.00 | 55 | 1009.6 |
| 20260505061017 | 13 | 135 | 3.2 | 12.9 | 0.00 | 0.00 | 0.00 | 56 | 1009.6 |
| 20260505060517 | 13 | 135 | 3.2 | 17.7 | 0.00 | 0.00 | 0.00 | 57 | 1009.7 |
| 20260505060017 | 13 | 158 | 4.8 | 17.7 | 0.00 | 0.00 | 0.00 | 58 | 1009.7 |
| 20260505055517 | 13 | 135 | 3.2 | 12.9 | 0.00 | 0.00 | 0.00 | 59 | 1009.7 |
| 20260505055017 | 13 | 135 | 3.2 | 12.9 | 0.00 | 0.00 | 0.00 | 59 | 1009.7 |
| 20260505054517 | 13 | 135 | 4.8 | 12.9 | 0.00 | 0.00 | 0.00 | 59 | 1009.7 |
| 20260505054017 | 13 | 135 | 4.8 | 16.1 | 0.00 | 0.00 | 0.00 | 59 | 1009.7 |
| 20260505053517 | 13 | 135 | 4.8 | 14.5 | 0.00 | 0.00 | 0.00 | 59 | 1009.6 |
| 20260505053017 | 14 | 135 | 3.2 | 8.0 | 0.00 | 0.00 | 0.00 | 58 | 1009.7 |
| 20260505052517 | 14 | 135 | 3.2 | 12.9 | 0.00 | 0.00 | 0.00 | 58 | 1009.5 |
| 20260505052017 | 14 | 135 | 4.8 | 12.9 | 0.00 | 0.00 | 0.00 | 57 | 1009.4 |
| 20260505051517 | 14 | 135 | 4.8 | 12.9 | 0.00 | 0.00 | 0.00 | 57 | 1009.4 |
| 20260505051017 | 14 | 158 | 4.8 | 17.7 | 0.00 | 0.00 | 0.00 | 57 | 1009.3 |
| 20260505050517 | 15 | 135 | 3.2 | 14.5 | 0.00 | 0.00 | 0.00 | 57 | 1009.3 |
| 20260505041517 | 16 | 158 | 3.2 | 11.3 | 0.00 | 0.00 | 0.00 | 45 | 1008.0 |
| 20260505041017 | 16 | 135 | 1.6 | 4.8 | 0.00 | 0.00 | 0.00 | 47 | 1008.0 |
| 20260505040517 | 16 | 135 | 1.6 | 11.3 | 0.00 | 0.00 | 0.00 | 43 | 1007.9 |
| 20260505040017 | 16 | 180 | 3.2 | 8.0 | 0.00 | 0.00 | 0.00 | 42 | 1007.7 |
| 20260505035517 | 16 | 135 | 3.2 | 11.3 | 0.00 | 0.00 | 0.00 | 42 | 1007.6 |
| 20260505035017 | 17 | 135 | 3.2 | 12.9 | 0.00 | 0.00 | 0.00 | 42 | 1007.5 |
| 20260505034517 | 17 | 135 | 3.2 | 16.1 | 0.00 | 0.00 | 0.00 | 42 | 1007.4 |
| 20260505034017 | 17 | 135 | 3.2 | 8.0 | 0.00 | 0.00 | 0.00 | 43 | 1007.4 |
| 20260505033517 | 17 | 135 | 1.6 | 8.0 | 0.00 | 0.00 | 0.00 | 44 | 1007.4 |
| 20260505033017 | 17 | 158 | 1.6 | 8.0 | 0.00 | 0.00 | 0.00 | 44 | 1007.3 |
| 20260505032517 | 17 | 203 | 1.6 | 6.4 | 0.00 | 0.00 | 0.00 | 43 | 1006.9 |
| 20260505032017 | 17 | 203 | 1.6 | 6.4 | 0.00 | 0.00 | 0.00 | 41 | 1007.1 |
| 20260505031517 | 17 | 203 | 3.2 | 9.7 | 0.00 | 0.00 | 0.00 | 41 | 1007.0 |
| 20260505031017 | 17 | 203 | 3.2 | 11.3 | 0.00 | 0.00 | 0.00 | 42 | 1006.9 |
| 20260505030517 | 17 | 158 | 4.8 | 14.5 | 0.00 | 0.00 | 0.00 | 42 | 1006.9 |
| 20260505030017 | 17 | 158 | 1.6 | 6.4 | 0.00 | 0.00 | 0.00 | 43 | 1006.9 |
| 20260505025517 | 17 | 158 | 3.2 | 9.7 | 0.00 | 0.00 | 0.00 | 43 | 1006.5 |
| 20260505025017 | 18 | 158 | 3.2 | 8.0 | 0.00 | 0.00 | 0.00 | 42 | 1006.7 |
| 20260505024517 | 18 | 203 | 1.6 | 14.5 | 0.00 | 0.00 | 0.00 | 41 | 1006.7 |
| 20260505024017 | 18 | 180 | 3.2 | 12.9 | 0.00 | 0.00 | 0.00 | 41 | 1006.7 |
| 20260505023517 | 18 | 180 | 3.2 | 11.3 | 0.00 | 0.00 | 0.00 | 40 | 1006.6 |
| 20260505023017 | 18 | 203 | 3.2 | 11.3 | 0.00 | 0.00 | 0.00 | 40 | 1006.5 |
| 20260505022518 | 18 | 158 | 1.6 | 6.4 | 0.00 | 0.00 | 0.00 | 37 | 1006.2 |
| 20260505022017 | 18 | 158 | 1.6 | 9.7 | 0.00 | 0.00 | 0.00 | 36 | 1006.2 |
| 20260505021517 | 18 | 158 | 1.6 | 9.7 | 0.00 | 0.00 | 0.00 | 36 | 1006.1 |
| 20260505021016 | 18 | 203 | 1.6 | 9.7 | 0.00 | 0.00 | 0.00 | 36 | 1006.0 |
| 20260505020517 | 18 | 135 | 1.6 | 9.7 | 0.00 | 0.00 | 0.00 | 35 | 1006.0 |
| 20260505020017 | 19 | 180 | 3.2 | 9.7 | 0.00 | 0.00 | 0.00 | 35 | 1006.0 |
| 20260505015517 | 19 | 158 | 3.2 | 12.9 | 0.00 | 0.00 | 0.00 | 34 | 1006.0 |
| 20260505015017 | 19 | 158 | 1.6 | 9.7 | 0.00 | 0.00 | 0.00 | 34 | 1006.1 |
| 20260505014517 | 19 | 158 | 1.6 | 8.0 | 0.00 | 0.00 | 0.00 | 34 | 1006.0 |
| 20260505014017 | 19 | 135 | 1.6 | 8.0 | 0.00 | 0.00 | 0.00 | 34 | 1006.0 |
| 20260505013517 | 20 | 135 | 1.6 | 8.0 | 0.00 | 0.00 | 0.00 | 34 | 1006.3 |
| 20260505013017 | 20 | 158 | 1.6 | 8.0 | 0.00 | 0.00 | 0.00 | 33 | 1006.3 |
| 20260505012517 | 21 | 203 | 1.6 | 8.0 | 0.00 | 0.00 | 0.00 | 31 | 1006.5 |
| 20260505012017 | 21 | 0.0 | 0.0 | 0.00 | 0.00 | 0.00 | 28 | 1006.5 | |
| 20260505011518 | 21 | 0.0 | 0.0 | 0.00 | 0.00 | 0.00 | 28 | 1006.4 | |
| 20260505011017 | 21 | 0.0 | 0.0 | 0.00 | 0.00 | 0.00 | 28 | 1006.5 | |
| 20260505010517 | 21 | 0.0 | 0.0 | 0.00 | 0.00 | 0.00 | 28 | 1006.5 | |
| 20260505010018 | 21 | 0.0 | 0.0 | 0.00 | 0.00 | 0.00 | 29 | 1006.5 | |
| 20260505005517 | 21 | 0.0 | 1.6 | 0.00 | 0.00 | 0.00 | 28 | 1006.5 | |
| 20260505005017 | 21 | 68 | 1.6 | 4.8 | 0.00 | 0.00 | 0.00 | 28 | 1006.5 |
| 20260505004517 | 21 | 0.0 | 3.2 | 0.00 | 0.00 | 0.00 | 29 | 1006.5 | |
| 20260505004017 | 21 | 0.0 | 3.2 | 0.00 | 0.00 | 0.00 | 29 | 1006.5 | |
| 20260505003517 | 21 | 0.0 | 4.8 | 0.00 | 0.00 | 0.00 | 28 | 1006.5 | |
| 20260505003017 | 21 | 0.0 | 1.6 | 0.00 | 0.00 | 0.00 | 31 | 1006.6 | |
| 20260505002517 | 21 | 0.0 | 3.2 | 0.00 | 0.00 | 0.00 | 31 | 1006.7 | |
| 20260505002017 | 20 | 0.0 | 1.6 | 0.00 | 0.00 | 0.00 | 31 | 1006.4 | |
| 20260505001517 | 20 | 0.0 | 0.0 | 0.00 | 0.00 | 0.00 | 32 | 1006.4 | |
| 20260505001017 | 20 | 68 | 1.6 | 4.8 | 0.00 | 0.00 | 0.00 | 31 | 1006.4 |
| 20260505000517 | 20 | 68 | 4.8 | 11.3 | 0.00 | 0.00 | 0.00 | 31 | 1006.4 |
| 20260505000017 | 20 | 23 | 6.4 | 11.3 | 0.00 | 0.00 | 0.00 | 31 | 1006.5 |
| 20260504235517 | 20 | 23 | 4.8 | 9.7 | 0.00 | 0.00 | 0.00 | 31 | 1006.9 |
| 20260504235017 | 20 | 45 | 6.4 | 11.3 | 0.00 | 0.00 | 0.00 | 31 | 1006.9 |
| 20260504234517 | 20 | 0 | 6.4 | 12.9 | 0.00 | 0.00 | 0.00 | 31 | 1007.0 |
| 20260504234017 | 20 | 68 | 8.0 | 17.7 | 0.00 | 0.00 | 0.00 | 32 | 1007.0 |
| 20260504233517 | 21 | 45 | 11.3 | 27.4 | 0.00 | 0.00 | 0.00 | 30 | 1007.0 |
| 20260504233017 | 21 | 45 | 8.0 | 16.1 | 0.00 | 0.00 | 0.00 | 31 | 1007.1 |
| 20260504232517 | 21 | 0 | 6.4 | 14.5 | 0.00 | 0.00 | 0.00 | 31 | 1007.1 |
| 20260504232017 | 20 | 23 | 8.0 | 17.7 | 0.00 | 0.00 | 0.00 | 32 | 1007.1 |
| 20260504231517 | 20 | 45 | 11.3 | 20.9 | 0.00 | 0.00 | 0.00 | 31 | 1006.8 |
| 20260504231017 | 20 | 45 | 12.9 | 20.9 | 0.00 | 0.00 | 0.00 | 31 | 1006.7 |
| 20260504230517 | 20 | 23 | 12.9 | 29.0 | 0.00 | 0.00 | 0.00 | 32 | 1006.7 |
| 20260504230017 | 20 | 45 | 14.5 | 27.4 | 0.00 | 0.00 | 0.00 | 32 | 1006.8 |
| 20260504225517 | 20 | 23 | 11.3 | 20.9 | 0.00 | 0.00 | 0.00 | 32 | 1006.7 |
| 20260504225017 | 20 | 45 | 14.5 | 33.8 | 0.00 | 0.00 | 0.00 | 31 | 1007.2 |
| 20260504224517 | 20 | 45 | 14.5 | 29.0 | 0.00 | 0.00 | 0.00 | 30 | 1007.0 |
| 20260504224017 | 21 | 45 | 9.7 | 20.9 | 0.00 | 0.00 | 0.00 | 29 | 1007.3 |
| 20260504223517 | 21 | 45 | 8.0 | 14.5 | 0.00 | 0.00 | 0.00 | 30 | 1007.3 |
| 20260504223017 | 21 | 45 | 11.3 | 24.1 | 0.00 | 0.00 | 0.00 | 28 | 1007.3 |
| 20260504222517 | 22 | 68 | 8.0 | 16.1 | 0.00 | 0.00 | 0.00 | 30 | 1007.6 |
| 20260504222017 | 22 | 315 | 4.8 | 17.7 | 0.00 | 0.00 | 0.00 | 28 | 1007.5 |
| 20260504221517 | 21 | 270 | 4.8 | 9.7 | 0.00 | 0.00 | 0.00 | 30 | 1007.6 |
| 20260504221017 | 21 | 270 | 4.8 | 14.5 | 0.00 | 0.00 | 0.00 | 32 | 1007.3 |
| 20260504220517 | 21 | 270 | 8.0 | 17.7 | 0.00 | 0.00 | 0.00 | 31 | 1007.3 |
| 20260504220017 | 21 | 270 | 4.8 | 12.9 | 0.00 | 0.00 | 0.00 | 33 | 1007.4 |
| 20260504215517 | 20 | 270 | 6.4 | 14.5 | 0.00 | 0.00 | 0.00 | 33 | 1007.4 |
| 20260504215017 | 20 | 225 | 8.0 | 16.1 | 0.00 | 0.00 | 0.00 | 33 | 1007.2 |
| 20260504214517 | 20 | 225 | 6.4 | 14.5 | 0.00 | 0.00 | 0.00 | 35 | 1007.3 |
| 20260504214017 | 20 | 248 | 9.7 | 17.7 | 0.00 | 0.00 | 0.00 | 35 | 1007.0 |
| 20260504213516 | 19 | 248 | 12.9 | 25.7 | 0.00 | 0.00 | 0.00 | 35 | 1007.0 |
| 20260504213017 | 19 | 225 | 12.9 | 20.9 | 0.00 | 0.00 | 0.00 | 35 | 1007.1 |
| 20260504212517 | 19 | 248 | 12.9 | 22.5 | 0.00 | 0.00 | 0.00 | 35 | 1007.1 |
| 20260504212017 | 19 | 225 | 12.9 | 37.0 | 0.00 | 0.00 | 0.00 | 35 | 1007.0 |
| 20260504211517 | 19 | 225 | 14.5 | 37.0 | 0.00 | 0.00 | 0.00 | 34 | 1007.1 |
| 20260504211017 | 20 | 248 | 12.9 | 30.6 | 0.00 | 0.00 | 0.00 | 33 | 1007.0 |
| 20260504210517 | 20 | 225 | 14.5 | 27.4 | 0.00 | 0.00 | 0.00 | 32 | 1007.1 |
| 20260504210017 | 20 | 225 | 12.9 | 20.9 | 0.00 | 0.00 | 0.00 | 30 | 1007.1 |
| 20260504205517 | 20 | 225 | 8.0 | 16.1 | 0.00 | 0.00 | 0.00 | 30 | 1007.3 |
| 20260504205017 | 20 | 225 | 9.7 | 16.1 | 0.00 | 0.00 | 0.00 | 31 | 1007.2 |
| 20260504204517 | 21 | 225 | 6.4 | 16.1 | 0.00 | 0.00 | 0.00 | 31 | 1007.3 |
| 20260504204017 | 21 | 225 | 8.0 | 14.5 | 0.00 | 0.00 | 0.00 | 30 | 1007.2 |
| 20260504203517 | 21 | 225 | 9.7 | 16.1 | 0.00 | 0.00 | 0.00 | 28 | 1007.5 |
| 20260504203017 | 22 | 248 | 4.8 | 12.9 | 0.00 | 0.00 | 0.00 | 27 | 1007.5 |
| 20260504202517 | 22 | 0.0 | 8.0 | 0.00 | 0.00 | 0.00 | 26 | 1007.8 | |
| 20260504202017 | 22 | 0.0 | 4.8 | 0.00 | 0.00 | 0.00 | 26 | 1007.2 | |
| 20260504201517 | 22 | 0 | 1.6 | 6.4 | 0.00 | 0.00 | 0.00 | 25 | 1007.3 |
| 20260504201020 | 22 | 0.0 | 4.8 | 0.00 | 0.00 | 0.00 | 26 | 1007.4 | |
| 20260504200517 | 22 | 0 | 1.6 | 8.0 | 0.00 | 0.00 | 0.00 | 26 | 1007.3 |
| 20260504200017 | 22 | 0 | 1.6 | 8.0 | 0.00 | 0.00 | 0.00 | 27 | 1007.4 |
| 20260504195517 | 22 | 0 | 3.2 | 9.7 | 0.00 | 0.00 | 0.00 | 26 | 1007.4 |
| 20260504195017 | 22 | 225 | 4.8 | 9.7 | 0.00 | 0.00 | 0.00 | 26 | 1006.6 |
| 20260504194517 | 22 | 225 | 1.6 | 6.4 | 0.00 | 0.00 | 0.00 | 26 | 1006.6 |
| 20260504194017 | 22 | 225 | 1.6 | 8.0 | 0.00 | 0.00 | 0.00 | 26 | 1006.6 |
| 20260504193517 | 22 | 225 | 3.2 | 12.9 | 0.00 | 0.00 | 0.00 | 27 | 1006.7 |
| 20260504193017 | 22 | 180 | 3.2 | 11.3 | 0.00 | 0.00 | 0.00 | 26 | 1007.1 |
| 20260504192517 | 22 | 180 | 1.6 | 6.4 | 0.00 | 0.00 | 0.00 | 27 | 1007.1 |
| 20260504192017 | 22 | 180 | 1.6 | 4.8 | 0.00 | 0.00 | 0.00 | 26 | 1007.1 |
| 20260504191517 | 22 | 135 | 1.6 | 6.4 | 0.00 | 0.00 | 0.00 | 27 | 1007.1 |
| 20260504191017 | 22 | 0.0 | 4.8 | 0.00 | 0.00 | 0.00 | 27 | 1007.3 | |
| 20260504190517 | 22 | 158 | 1.6 | 4.8 | 0.00 | 0.00 | 0.00 | 26 | 1007.3 |
| 20260504190022 | 22 | 203 | 1.6 | 6.4 | 0.00 | 0.00 | 0.00 | 27 | 1007.4 |
| 20260504185517 | 22 | 203 | 1.6 | 8.0 | 0.00 | 0.00 | 0.00 | 28 | 1007.5 |
| 20260504185017 | 22 | 158 | 1.6 | 6.4 | 0.00 | 0.00 | 0.00 | 27 | 1007.8 |
| 20260504184517 | 22 | 135 | 3.2 | 11.3 | 0.00 | 0.00 | 0.00 | 26 | 1007.9 |
| 20260504184017 | 22 | 135 | 3.2 | 11.3 | 0.00 | 0.00 | 0.00 | 27 | 1008.0 |
| 20260504183517 | 22 | 180 | 3.2 | 8.0 | 0.00 | 0.00 | 0.00 | 27 | 1007.9 |
| 20260504183017 | 22 | 90 | 3.2 | 11.3 | 0.00 | 0.00 | 0.00 | 29 | 1008.0 |
| 20260504182518 | 22 | 158 | 1.6 | 8.0 | 0.00 | 0.00 | 0.00 | 27 | 1008.1 |
| 20260504182017 | 22 | 203 | 3.2 | 11.3 | 0.00 | 0.00 | 0.00 | 29 | 1008.5 |
| 20260504181517 | 22 | 135 | 3.2 | 12.9 | 0.00 | 0.00 | 0.00 | 28 | 1008.5 |
| 20260504181015 | 22 | 180 | 1.6 | 8.0 | 0.00 | 0.00 | 0.00 | 28 | 1008.5 |
| 20260504180517 | 22 | 203 | 3.2 | 12.9 | 0.00 | 0.00 | 0.00 | 29 | 1008.7 |
| 20260504180017 | 22 | 135 | 3.2 | 16.1 | 0.00 | 0.00 | 0.00 | 28 | 1008.7 |
| 20260504175517 | 22 | 135 | 1.6 | 11.3 | 0.00 | 0.00 | 0.00 | 29 | 1008.8 |
| 20260504175017 | 22 | 180 | 3.2 | 12.9 | 0.00 | 0.00 | 0.00 | 30 | 1009.2 |
| 20260504174517 | 22 | 135 | 3.2 | 22.5 | 0.00 | 0.00 | 0.00 | 29 | 1009.1 |
| 20260504174017 | 22 | 158 | 3.2 | 9.7 | 0.00 | 0.00 | 0.00 | 29 | 1009.2 |
| 20260504173517 | 22 | 203 | 1.6 | 9.7 | 0.00 | 0.00 | 0.00 | 30 | 1009.3 |
| 20260504173017 | 21 | 135 | 3.2 | 11.3 | 0.00 | 0.00 | 0.00 | 30 | 1009.3 |
| 20260504172517 | 21 | 135 | 1.6 | 9.7 | 0.00 | 0.00 | 0.00 | 30 | 1009.4 |
| 20260504172017 | 21 | 135 | 1.6 | 11.3 | 0.00 | 0.00 | 0.00 | 30 | 1009.7 |
| 20260504171518 | 21 | 158 | 1.6 | 8.0 | 0.00 | 0.00 | 0.00 | 30 | 1009.8 |
| 20260504171017 | 21 | 135 | 3.2 | 9.7 | 0.00 | 0.00 | 0.00 | 31 | 1009.6 |
| 20260504170517 | 21 | 135 | 3.2 | 9.7 | 0.00 | 0.00 | 0.00 | 32 | 1009.6 |